| time (UTC) | temp F | wind direction | speed MPH | gust MPH | rain 1hr in | rain 24hr in | rain mn in | humidity % | barometer mb |
| 20260504004533 | 62 | 328 | 5.0 | 11.0 | 0.00 | 0.00 | 0.00 | 96 | 1015.0 |
| 20260504003521 | 62 | 342 | 6.0 | 13.0 | 0.00 | 0.00 | 0.00 | 96 | 1015.2 |
| 20260504002531 | 62 | 339 | 7.0 | 14.0 | 0.00 | 0.00 | 0.00 | 96 | 1015.3 |
| 20260504001519 | 62 | 335 | 7.0 | 13.0 | 0.00 | 0.00 | 0.00 | 96 | 1015.2 |
| 20260504000529 | 62 | 348 | 8.0 | 16.0 | 0.00 | 0.00 | 0.00 | 96 | 1015.1 |
| 20260503235537 | 62 | 347 | 7.0 | 17.0 | 0.00 | 0.00 | 0.00 | 97 | 1015.1 |
| 20260503234525 | 62 | 347 | 9.0 | 18.0 | 0.00 | 0.00 | 0.00 | 98 | 1014.9 |
| 20260503233535 | 62 | 336 | 8.0 | 21.0 | 0.00 | 0.00 | 0.00 | 98 | 1015.2 |
| 20260503232531 | 62 | 329 | 7.0 | 13.0 | 0.00 | 0.00 | 0.00 | 98 | 1015.1 |
| 20260503231534 | 62 | 354 | 6.0 | 14.0 | 0.00 | 0.00 | 0.00 | 98 | 1015.5 |
| 20260503230522 | 62 | 325 | 5.0 | 13.0 | 0.00 | 0.00 | 0.00 | 98 | 1015.2 |
| 20260503225531 | 62 | 360 | 6.0 | 14.0 | 0.00 | 0.00 | 0.00 | 98 | 1015.1 |
| 20260503224521 | 62 | 348 | 5.0 | 10.0 | 0.00 | 0.00 | 0.00 | 98 | 1015.2 |
| 20260503223529 | 62 | 355 | 5.0 | 11.0 | 0.00 | 0.00 | 0.00 | 98 | 1015.1 |
| 20260503222517 | 62 | 3 | 5.0 | 13.0 | 0.00 | 0.00 | 0.00 | 98 | 1014.9 |
| 20260503221533 | 62 | 3 | 5.0 | 11.0 | 0.00 | 0.00 | 0.00 | 98 | 1014.9 |
| 20260503220534 | 62 | 4 | 4.0 | 9.0 | 0.00 | 0.00 | 0.00 | 98 | 1015.0 |
| 20260503215523 | 62 | 9 | 4.0 | 8.0 | 0.00 | 0.00 | 0.00 | 98 | 1015.1 |
| 20260503214533 | 62 | 0 | 3.0 | 7.0 | 0.00 | 0.00 | 0.00 | 98 | 1015.0 |
| 20260503213528 | 62 | 353 | 3.0 | 6.0 | 0.00 | 0.00 | 0.00 | 98 | 1014.9 |
| 20260503212537 | 62 | 9 | 3.0 | 10.0 | 0.00 | 0.00 | 0.00 | 98 | 1014.7 |
| 20260503211525 | 62 | 6 | 4.0 | 8.0 | 0.00 | 0.00 | 0.00 | 98 | 1014.6 |
| 20260503210527 | 62 | 9 | 3.0 | 8.0 | 0.00 | 0.00 | 0.00 | 98 | 1014.6 |
| 20260503205537 | 62 | 8 | 3.0 | 8.0 | 0.00 | 0.00 | 0.00 | 98 | 1014.6 |
| 20260503204525 | 62 | 3 | 3.0 | 6.0 | 0.00 | 0.00 | 0.00 | 98 | 1014.6 |
| 20260503203535 | 62 | 0 | 3.0 | 6.0 | 0.00 | 0.00 | 0.00 | 98 | 1014.4 |
| 20260503202524 | 62 | 1 | 4.0 | 9.0 | 0.00 | 0.00 | 0.00 | 98 | 1014.3 |
| 20260503201532 | 62 | 19 | 3.0 | 6.0 | 0.00 | 0.00 | 0.00 | 98 | 1014.3 |
| 20260503200521 | 62 | 2 | 3.0 | 6.0 | 0.00 | 0.00 | 0.00 | 98 | 1014.4 |
| 20260503195537 | 62 | 15 | 2.0 | 5.0 | 0.00 | 0.00 | 0.00 | 98 | 1014.4 |
| 20260503194533 | 61 | 1 | 2.0 | 5.0 | 0.00 | 0.00 | 0.00 | 98 | 1014.4 |
| 20260503193529 | 61 | 30 | 1.0 | 3.0 | 0.00 | 0.00 | 0.00 | 98 | 1014.4 |
| 20260503192518 | 61 | 4 | 2.0 | 5.0 | 0.00 | 0.00 | 0.00 | 98 | 1014.4 |
| 20260503191527 | 61 | 330 | 2.0 | 4.0 | 0.00 | 0.00 | 0.00 | 98 | 1014.6 |
| 20260503190537 | 61 | 354 | 1.0 | 4.0 | 0.00 | 0.00 | 0.00 | 98 | 1014.6 |
| 20260503185539 | 61 | 1 | 2.0 | 5.0 | 0.00 | 0.00 | 0.00 | 98 | 1014.8 |
| 20260503184534 | 62 | 9 | 2.0 | 4.0 | 0.00 | 0.00 | 0.00 | 98 | 1014.8 |
| 20260503183529 | 62 | 350 | 1.0 | 3.0 | 0.00 | 0.00 | 0.00 | 98 | 1014.8 |
| 20260503182537 | 62 | 333 | 1.0 | 6.0 | 0.00 | 0.00 | 0.00 | 98 | 1015.1 |
| 20260503181519 | 62 | 351 | 2.0 | 6.0 | 0.00 | 0.00 | 0.00 | 98 | 1015.0 |
| 20260503180529 | 62 | 318 | 2.0 | 5.0 | 0.00 | 0.00 | 0.00 | 98 | 1015.1 |
| 20260503175517 | 62 | 343 | 2.0 | 6.0 | 0.00 | 0.00 | 0.00 | 98 | 1015.2 |
| 20260503174526 | 62 | 342 | 3.0 | 7.0 | 0.00 | 0.00 | 0.00 | 98 | 1015.2 |
| 20260503173535 | 62 | 0 | 2.0 | 6.0 | 0.00 | 0.00 | 0.00 | 98 | 1015.2 |
| 20260503172523 | 62 | 17 | 3.0 | 6.0 | 0.00 | 0.00 | 0.00 | 98 | 1015.1 |
| 20260503171532 | 62 | 12 | 3.0 | 6.0 | 0.00 | 0.00 | 0.00 | 98 | 1015.1 |
| 20260503170521 | 62 | 360 | 4.0 | 7.0 | 0.00 | 0.00 | 0.00 | 98 | 1015.5 |
| 20260503150527 | 62 | 346 | 4.0 | 10.0 | 0.00 | 0.00 | 0.00 | 97 | 1016.7 |
| 20260503130535 | 63 | 41 | 1.0 | 4.0 | 0.00 | 0.00 | 0.00 | 96 | 1017.3 |
| 20260503110527 | 63 | 98 | 2.0 | 4.0 | 0.00 | 0.00 | 0.00 | 95 | 1017.4 |
| 20260503081532 | 65 | 335 | 5.0 | 11.0 | 0.00 | 0.00 | 0.00 | 90 | 1018.0 |
| 20260503080521 | 65 | 293 | 4.0 | 8.0 | 0.00 | 0.00 | 0.00 | 89 | 1017.8 |
| 20260503072516 | 65 | 358 | 1.0 | 2.0 | 0.00 | 0.00 | 0.00 | 90 | 1017.2 |
| 20260503071532 | 66 | 18 | 2.0 | 3.0 | 0.00 | 0.00 | 0.00 | 90 | 1017.3 |
| 20260503070536 | 66 | 324 | 4.0 | 7.0 | 0.00 | 0.00 | 0.00 | 89 | 1017.4 |
| 20260503054526 | 70 | 169 | 2.0 | 4.0 | 0.00 | 0.00 | 0.00 | 72 | 1017.5 |
| 20260503053536 | 71 | 204 | 2.0 | 3.0 | 0.00 | 0.00 | 0.00 | 67 | 1017.5 |
| 20260503052524 | 71 | 28 | 1.0 | 2.0 | 0.00 | 0.00 | 0.00 | 68 | 1017.5 |
| 20260503051532 | 71 | 208 | 1.0 | 2.0 | 0.00 | 0.00 | 0.00 | 67 | 1017.6 |
| 20260503050522 | 71 | 256 | 1.0 | 2.0 | 0.00 | 0.00 | 0.00 | 65 | 1017.8 |
| 20260503045530 | 72 | 213 | 2.0 | 4.0 | 0.00 | 0.00 | 0.00 | 65 | 1017.8 |
| 20260503044520 | 70 | 316 | 4.0 | 7.0 | 0.00 | 0.00 | 0.00 | 67 | 1018.0 |
| 20260503043528 | 70 | 360 | 2.0 | 4.0 | 0.00 | 0.00 | 0.00 | 71 | 1018.0 |
| 20260503042538 | 69 | 353 | 2.0 | 4.0 | 0.00 | 0.00 | 0.00 | 74 | 1017.9 |
| 20260503041525 | 70 | 342 | 4.0 | 8.0 | 0.00 | 0.00 | 0.00 | 70 | 1018.0 |
| 20260503040535 | 71 | 339 | 5.0 | 8.0 | 0.00 | 0.00 | 0.00 | 64 | 1018.1 |
| 20260503035523 | 72 | 327 | 6.0 | 10.0 | 0.00 | 0.00 | 0.00 | 62 | 1018.1 |
| 20260503034532 | 72 | 337 | 7.0 | 12.0 | 0.00 | 0.00 | 0.00 | 61 | 1018.2 |
| 20260503033521 | 73 | 319 | 7.0 | 14.0 | 0.00 | 0.00 | 0.00 | 59 | 1018.2 |
| 20260503032529 | 71 | 328 | 2.0 | 6.0 | 0.00 | 0.00 | 0.00 | 64 | 1018.5 |
| 20260503031518 | 71 | 341 | 5.0 | 9.0 | 0.00 | 0.00 | 0.00 | 63 | 1018.7 |
| 20260503030528 | 70 | 337 | 3.0 | 8.0 | 0.00 | 0.00 | 0.00 | 65 | 1018.8 |
| 20260503025534 | 69 | 323 | 3.0 | 6.0 | 0.00 | 0.00 | 0.00 | 69 | 1019.0 |
| 20260503024521 | 68 | 206 | 3.0 | 6.0 | 0.00 | 0.00 | 0.00 | 70 | 1019.1 |
| 20260503023537 | 68 | 271 | 1.0 | 3.0 | 0.00 | 0.00 | 0.00 | 70 | 1019.2 |
| 20260503022531 | 67 | 211 | 2.0 | 4.0 | 0.00 | 0.00 | 0.00 | 71 | 1019.5 |
| 20260503021526 | 68 | 247 | 2.0 | 4.0 | 0.00 | 0.00 | 0.00 | 72 | 1019.8 |
| 20260503020542 | 66 | 146 | 2.0 | 4.0 | 0.00 | 0.00 | 0.00 | 73 | 1019.9 |
| 20260503015524 | 67 | 191 | 1.0 | 2.0 | 0.00 | 0.00 | 0.00 | 73 | 1020.4 |
| 20260503014534 | 65 | 260 | 2.0 | 5.0 | 0.00 | 0.00 | 0.00 | 76 | 1020.5 |
| 20260503013522 | 65 | 207 | 2.0 | 5.0 | 0.00 | 0.00 | 0.00 | 79 | 1020.6 |
| 20260503012532 | 64 | 191 | 2.0 | 5.0 | 0.00 | 0.00 | 0.00 | 80 | 1020.5 |
| 20260503011527 | 64 | 165 | 2.0 | 4.0 | 0.00 | 0.00 | 0.00 | 84 | 1020.8 |
| 20260503010531 | 63 | 160 | 3.0 | 7.0 | 0.00 | 0.00 | 0.00 | 87 | 1020.9 |
| 20260503005519 | 62 | 184 | 5.0 | 7.0 | 0.00 | 0.00 | 0.00 | 89 | 1021.1 |